contact:dominique.lefevre@mio.osupytheas.fr, maurice.libes@osupytheas.fr, didier.mallarino@osupytheas.fr
Project:EMSO http://www.emso-fr.org/EMSO-France
Depth: 2436.0 m
Title:EMSO Ligure Ouest : Data MII capteur AQUADOPP
Date,Latitude,Longitude,X_East,Y_North,Z_Up,Amplitude_X,Amplitude_Y,Amplitude_Z,Batterie,SoundSpeed,Heading,Pitch,Roll,Pressure,TIS,Speed,Direction
, degrees North, degrees East, m.s-1, m.s-1,m.s-1, 1, 1, 1, Volt, m.s-1, degree, degree, degree, dbar, degree_C, m.s-1, degree
2019-05-28T13:33:41,42.805,6.029,0.029,-0.021,-0.036,99.0,102.0,99.0,13.4,1505.1,327.9,-0.8,1.9,2470.477,13.27,0.035,125.9
2019-05-28T13:40:42,42.805,6.029,0.042,-0.024,0.005,101.0,101.0,97.0,13.4,1505.2,326.8,-0.8,1.9,2470.297,13.3,0.048,119.7
2019-05-28T13:43:43,42.805,6.029,0.063,-0.012,-0.011,99.0,101.0,98.0,13.3,1505.3,323.6,-0.7,1.9,2470.245,13.31,0.064,100.8
2019-05-28T13:46:44,42.805,6.029,0.026,-0.018,-0.03,100.0,101.0,96.0,13.4,1505.3,325.0,-0.8,1.8,2470.207,13.31,0.031,124.7
2019-05-28T13:49:45,42.805,6.029,0.066,-0.015,-0.001,98.0,102.0,98.0,13.4,1505.3,326.6,-0.8,1.9,2470.169,13.32,0.067,102.8
2019-05-28T13:52:46,42.805,6.029,0.032,-0.004,-0.023,100.0,101.0,97.0,13.3,1505.3,327.0,-0.8,1.9,2470.114,13.32,0.032,97.1
2019-05-28T13:55:47,42.805,6.029,0.034,-0.009,0.018,100.0,102.0,98.0,13.4,1505.3,324.4,-0.7,1.8,2470.059,13.32,0.035,104.8
2019-05-28T13:58:48,42.805,6.029,0.02,-0.009,-0.025,99.0,101.0,97.0,13.4,1505.3,325.9,-0.7,1.9,2470.085,13.32,0.021,114.2
2019-05-28T14:01:49,42.805,6.029,0.034,-0.01,-0.001,100.0,103.0,96.0,13.4,1505.3,325.4,-0.8,1.9,2470.069,13.32,0.035,106.4
2019-05-28T14:09:04,42.805,6.029,0.012,-0.025,-0.016,100.0,103.0,97.0,13.3,1505.2,323.0,-0.8,1.8,2470.065,13.3,0.027,154.4
2019-05-28T14:12:05,42.805,6.029,0.026,-0.035,-0.071,100.0,105.0,96.0,13.3,1505.3,327.1,-0.8,1.8,2470.069,13.31,0.043,143.4
2019-05-28T14:15:06,42.805,6.029,0.036,-0.002,-0.007,100.0,104.0,97.0,13.3,1505.3,327.0,-0.7,1.8,2470.001,13.31,0.036,93.2
2019-05-28T14:18:07,42.805,6.029,0.014,-0.025,-0.044,99.0,103.0,97.0,13.4,1505.3,328.0,-0.8,1.8,2470.008,13.32,0.028,150.7
2019-05-28T14:21:08,42.805,6.029,0.027,-0.029,-0.03,99.0,102.0,96.0,13.4,1505.3,328.6,-0.7,1.9,2470.007,13.32,0.039,137.0
2019-05-28T14:24:09,42.805,6.029,0.003,-0.01,-0.011,101.0,101.0,97.0,13.4,1505.3,325.9,-0.8,1.9,2469.977,13.32,0.01,163.3
2019-05-28T14:27:10,42.805,6.029,-0.02,-0.01,-0.039,99.0,103.0,96.0,13.4,1505.3,328.0,-0.7,1.8,2469.974,13.32,0.022,243.4
2019-05-28T14:30:11,42.805,6.029,0.037,0.0,-0.012,101.0,101.0,96.0,13.3,1505.3,325.6,-0.7,1.9,2469.943,13.32,0.037,90.0
2019-05-28T14:33:12,42.805,6.029,0.07,-0.011,-0.016,100.0,101.0,97.0,13.4,1505.3,323.7,-0.8,1.9,2469.969,13.32,0.07,98.9
2019-05-28T14:36:13,42.805,6.029,0.046,-0.001,0.009,100.0,101.0,98.0,13.3,1505.3,327.9,-0.8,1.9,2469.922,13.32,0.046,91.2
2019-05-28T14:39:14,42.805,6.029,0.031,0.008,-0.005,100.0,102.0,96.0,13.4,1505.3,326.7,-0.7,1.8,2469.923,13.32,0.032,75.5
2019-05-28T14:42:15,42.805,6.029,0.016,-0.017,-0.034,100.0,103.0,96.0,13.4,1505.3,325.8,-0.8,1.9,2470.005,13.32,0.023,136.7
2019-05-28T14:45:16,42.805,6.029,-0.003,-0.014,-0.028,100.0,103.0,96.0,13.3,1505.3,326.3,-0.8,1.9,2469.989,13.32,0.014,192.1
2019-05-28T14:48:17,42.805,6.029,0.002,-0.013,-0.062,99.0,102.0,97.0,13.3,1505.3,326.9,-0.8,1.8,2469.972,13.32,0.013,171.3
2019-05-28T14:51:18,42.805,6.029,0.024,0.009,0.01,100.0,103.0,97.0,13.4,1505.3,326.3,-0.8,1.9,2469.962,13.32,0.025,69.4
2019-05-28T14:54:19,42.805,6.029,0.027,-0.002,-0.014,100.0,104.0,97.0,13.4,1505.3,326.8,-0.8,1.9,2469.959,13.32,0.027,94.2
2019-05-28T14:57:20,42.805,6.029,0.007,-0.013,-0.036,100.0,104.0,96.0,13.4,1505.3,326.7,-0.7,1.8,2470.018,13.32,0.014,151.7
2019-05-28T15:00:21,42.805,6.029,0.036,0.013,-0.026,98.0,103.0,97.0,13.4,1505.3,326.4,-0.8,1.8,2469.958,13.32,0.038,70.1
2019-05-28T15:03:22,42.805,6.029,0.007,-0.005,-0.016,98.0,105.0,96.0,13.4,1505.3,326.3,-0.8,1.9,2469.991,13.32,0.008,125.5
2019-05-28T15:06:23,42.805,6.029,-0.01,0.001,-0.041,102.0,103.0,98.0,13.4,1505.3,325.2,-0.8,1.9,2469.939,13.32,0.01,275.7
2019-05-28T15:09:24,42.805,6.029,-0.01,-0.033,-0.046,100.0,102.0,97.0,13.3,1505.3,328.2,-0.8,1.8,2469.978,13.32,0.034,196.9
2019-05-28T15:12:25,42.805,6.029,0.0,-0.007,-0.034,100.0,102.0,96.0,13.4,1505.3,323.8,-0.8,1.9,2469.957,13.32,0.007,180.0
2019-05-28T15:15:26,42.805,6.029,0.015,-0.009,-0.064,98.0,102.0,97.0,13.4,1505.3,324.5,-0.8,1.9,2469.95,13.32,0.017,121.0
2019-05-28T15:18:27,42.805,6.029,-0.011,-0.011,-0.064,100.0,101.0,98.0,13.4,1505.3,323.4,-0.7,1.8,2469.962,13.32,0.015,225.0
2019-05-28T15:21:28,42.805,6.029,-0.013,-0.002,-0.048,100.0,103.0,96.0,13.4,1505.3,326.8,-0.7,1.8,2469.968,13.32,0.013,261.3
2019-05-28T15:24:29,42.805,6.029,-0.004,-0.004,-0.021,101.0,103.0,97.0,13.4,1505.3,325.3,-0.8,1.8,2469.953,13.32,0.005,225.0
2019-05-28T15:27:30,42.805,6.029,-0.002,-0.009,-0.047,100.0,102.0,97.0,13.4,1505.3,325.7,-0.7,1.9,2469.977,13.32,0.009,192.5
2019-05-28T15:30:31,42.805,6.029,0.023,-0.01,-0.032,99.0,104.0,97.0,13.3,1505.3,323.4,-0.7,1.9,2470.0,13.32,0.025,113.5
2019-05-28T15:33:32,42.805,6.029,-0.001,-0.004,-0.026,99.0,104.0,98.0,13.3,1505.3,324.6,-0.7,1.9,2469.995,13.32,0.004,194.0
2019-05-28T15:36:33,42.805,6.029,-0.011,0.0,-0.036,99.0,102.0,97.0,13.4,1505.3,324.4,-0.7,1.9,2469.951,13.33,0.011,270.0
2019-05-28T15:39:34,42.805,6.029,-0.003,-0.016,-0.044,100.0,105.0,97.0,13.4,1505.3,326.9,-0.7,1.9,2469.957,13.33,0.016,190.6
2019-05-28T15:42:35,42.805,6.029,0.01,0.0,-0.026,100.0,102.0,97.0,13.3,1505.3,327.4,-0.7,1.8,2469.955,13.33,0.01,90.0
2019-05-28T15:45:36,42.805,6.029,-0.015,-0.035,-0.057,101.0,102.0,96.0,13.4,1505.3,325.8,-0.8,1.9,2469.974,13.33,0.038,203.2
2019-05-28T15:48:37,42.805,6.029,-0.02,-0.005,-0.036,99.0,104.0,98.0,13.3,1505.3,325.4,-0.7,1.8,2469.987,13.33,0.02,256.0
2019-05-28T15:51:38,42.805,6.029,0.016,-0.008,-0.032,99.0,103.0,97.0,13.4,1505.3,325.3,-0.8,1.9,2469.953,13.33,0.017,116.6
2019-05-28T15:54:39,42.805,6.029,0.015,-0.004,0.003,100.0,102.0,97.0,13.3,1505.3,325.5,-0.8,1.9,2469.966,13.32,0.015,104.9
2019-05-28T15:57:40,42.805,6.029,0.013,0.012,-0.021,99.0,101.0,96.0,13.4,1505.3,327.7,-0.7,1.9,2470.011,13.32,0.017,47.3
2019-05-28T16:00:41,42.805,6.029,0.037,-0.019,-0.025,99.0,104.0,96.0,13.3,1505.3,325.6,-0.8,1.8,2469.977,13.33,0.041,117.2
2019-05-28T16:03:42,42.805,6.029,0.014,-0.01,-0.035,99.0,103.0,97.0,13.4,1505.3,325.4,-0.8,1.9,2469.999,13.33,0.017,125.5
2019-05-28T16:06:43,42.805,6.029,-0.007,0.007,-0.045,100.0,102.0,97.0,13.3,1505.3,327.7,-0.8,1.8,2469.957,13.33,0.009,315.0
2019-05-28T16:09:44,42.805,6.029,0.001,-0.006,-0.019,99.0,103.0,96.0,13.4,1505.3,325.0,-0.8,1.9,2470.022,13.33,0.006,170.5
2019-05-28T16:12:45,42.805,6.029,0.013,0.002,0.004,99.0,102.0,96.0,13.4,1505.3,323.0,-0.8,1.8,2470.016,13.33,0.013,81.3
2019-05-28T16:15:46,42.805,6.029,0.04,-0.012,-0.009,99.0,102.0,97.0,13.4,1505.3,327.4,-0.7,1.9,2469.988,13.33,0.041,106.7
2019-05-28T16:18:47,42.805,6.029,0.034,0.003,0.0,100.0,102.0,96.0,13.3,1505.3,327.0,-0.8,1.9,2469.998,13.33,0.034,85.0
2019-05-28T16:21:48,42.805,6.029,0.02,-0.02,-0.044,100.0,102.0,97.0,13.4,1505.3,328.3,-0.8,1.8,2470.001,13.33,0.028,135.0
2019-05-28T16:24:49,42.805,6.029,0.004,0.014,-0.045,99.0,103.0,97.0,13.3,1505.3,325.2,-0.8,1.9,2469.99,13.33,0.014,15.9
2019-05-28T16:27:50,42.805,6.029,0.019,0.0,-0.014,101.0,102.0,97.0,13.4,1505.3,323.0,-0.8,1.9,2469.94,13.33,0.019,90.0
2019-05-28T16:30:51,42.805,6.029,0.014,0.004,0.004,100.0,102.0,98.0,13.4,1505.3,325.3,-0.7,1.9,2469.991,13.33,0.014,74.1
2019-05-28T16:33:52,42.805,6.029,0.017,-0.003,-0.036,99.0,102.0,96.0,13.3,1505.3,327.6,-0.8,1.9,2469.982,13.33,0.017,100.0
2019-05-28T16:36:53,42.805,6.029,-0.007,-0.003,-0.028,99.0,101.0,96.0,13.4,1505.3,324.6,-0.7,1.9,2470.021,13.33,0.007,246.8
2019-05-28T16:39:54,42.805,6.029,-0.006,-0.002,-0.027,99.0,101.0,96.0,13.4,1505.3,324.4,-0.8,1.9,2470.034,13.33,0.006,251.6
2019-05-28T16:42:55,42.805,6.029,0.005,-0.012,-0.015,100.0,102.0,97.0,13.3,1505.3,326.5,-0.7,1.8,2469.98,13.33,0.013,157.4
2019-05-28T16:45:56,42.805,6.029,0.006,-0.004,-0.044,99.0,101.0,97.0,13.3,1505.3,324.5,-0.8,1.9,2469.985,13.33,0.007,123.7
2019-05-28T16:48:57,42.805,6.029,0.021,0.03,-0.035,100.0,101.0,96.0,13.4,1505.3,325.0,-0.7,1.8,2469.988,13.33,0.036,35.0
2019-05-28T16:51:58,42.805,6.029,0.015,0.005,-0.021,99.0,102.0,96.0,13.4,1505.3,326.3,-0.8,1.8,2469.973,13.33,0.015,71.6
2019-05-28T16:54:59,42.805,6.029,0.012,-0.002,-0.017,99.0,100.0,97.0,13.4,1505.3,326.2,-0.7,1.8,2469.994,13.33,0.012,99.5
2019-05-28T16:58:00,42.805,6.029,0.006,0.002,-0.014,99.0,101.0,98.0,13.4,1505.3,326.7,-0.7,1.9,2469.976,13.33,0.006,71.6
2019-05-28T17:01:01,42.805,6.029,0.004,-0.008,-0.054,99.0,103.0,98.0,13.3,1505.3,326.7,-0.7,1.8,2469.962,13.33,0.008,153.4
2019-05-28T17:04:02,42.805,6.029,0.009,0.0,-0.018,99.0,101.0,96.0,13.3,1505.3,326.3,-0.7,1.9,2469.984,13.33,0.009,90.0
2019-05-28T17:07:03,42.805,6.029,-0.015,-0.013,-0.075,98.0,102.0,96.0,13.3,1505.3,323.1,-0.7,1.8,2469.995,13.33,0.019,229.1
2019-05-28T17:10:04,42.805,6.029,0.022,0.001,-0.051,99.0,103.0,95.0,13.3,1505.3,322.7,-0.8,1.9,2469.992,13.33,0.022,87.4
2019-05-28T17:13:05,42.805,6.029,0.017,-0.007,-0.063,98.0,101.0,97.0,13.4,1505.3,324.7,-0.7,1.9,2469.963,13.33,0.018,112.4
2019-05-28T17:16:06,42.805,6.029,0.001,0.003,-0.037,99.0,101.0,98.0,13.4,1505.3,323.7,-0.8,1.8,2470.039,13.33,0.003,18.4
2019-05-28T17:19:07,42.805,6.029,0.032,0.023,-0.013,98.0,104.0,96.0,13.4,1505.3,323.7,-0.7,1.8,2469.99,13.33,0.039,54.3
2019-05-28T17:22:08,42.805,6.029,0.033,-0.007,-0.01,100.0,103.0,97.0,13.4,1505.3,326.6,-0.8,1.8,2469.982,13.33,0.033,102.0
2019-05-28T17:25:09,42.805,6.029,0.007,-0.003,-0.016,98.0,103.0,97.0,13.4,1505.3,325.6,-0.8,1.8,2470.042,13.33,0.007,113.2
2019-05-28T17:28:10,42.805,6.029,0.038,0.01,-0.02,101.0,104.0,97.0,13.4,1505.3,325.7,-0.8,1.9,2469.956,13.33,0.039,75.3
2019-05-28T17:31:11,42.805,6.029,0.019,0.001,-0.001,102.0,103.0,96.0,13.4,1505.3,325.8,-0.8,1.8,2469.991,13.33,0.019,87.0
2019-05-28T17:34:12,42.805,6.029,-0.01,0.003,0.011,101.0,101.0,96.0,13.4,1505.3,324.1,-0.8,1.9,2469.997,13.33,0.01,286.7
2019-05-28T17:37:13,42.805,6.029,0.023,0.009,0.011,99.0,102.0,98.0,13.4,1505.3,323.0,-0.8,1.8,2470.027,13.33,0.024,68.6
2019-05-28T17:40:14,42.805,6.029,0.006,0.002,-0.036,99.0,103.0,97.0,13.4,1505.3,327.9,-0.8,1.8,2469.997,13.33,0.006,71.6
2019-05-28T17:43:15,42.805,6.029,0.013,0.001,-0.031,100.0,101.0,95.0,13.4,1505.3,324.3,-0.7,1.8,2469.991,13.33,0.013,85.6
2019-05-28T17:46:16,42.805,6.029,-0.014,0.009,-0.047,99.0,102.0,97.0,13.4,1505.3,327.4,-0.8,1.9,2469.929,13.33,0.016,302.7
2019-05-28T17:49:17,42.805,6.029,0.0,0.001,-0.005,97.0,103.0,98.0,13.3,1505.3,326.6,-0.7,1.8,2470.013,13.33,0.001,0.0
2019-05-28T17:52:18,42.805,6.029,0.001,-0.008,-0.053,98.0,103.0,97.0,13.4,1505.3,324.1,-0.8,1.9,2469.984,13.33,0.008,172.9
2019-05-28T17:55:19,42.805,6.029,-0.011,0.0,-0.02,100.0,100.0,97.0,13.4,1505.3,325.3,-0.8,1.8,2469.941,13.33,0.011,270.0
2019-05-28T17:58:20,42.805,6.029,0.002,-0.003,-0.06,98.0,103.0,98.0,13.3,1505.3,322.5,-0.8,1.8,2469.968,13.33,0.003,146.3
2019-05-28T18:01:21,42.805,6.029,0.021,0.007,-0.019,101.0,101.0,97.0,13.3,1505.3,328.3,-0.8,1.9,2469.986,13.33,0.022,71.6
2019-05-28T18:04:22,42.805,6.029,-0.004,0.007,0.011,99.0,102.0,96.0,13.3,1505.3,326.0,-0.7,1.9,2470.006,13.33,0.008,330.3
2019-05-28T18:07:23,42.805,6.029,0.009,0.039,-0.021,99.0,103.0,96.0,13.3,1505.3,327.1,-0.8,1.8,2470.007,13.33,0.04,13.0
2019-05-28T18:10:25,42.805,6.029,0.0,0.004,-0.007,100.0,102.0,97.0,13.4,1505.3,326.9,-0.8,1.9,2469.999,13.33,0.004,0.0
2019-05-28T18:13:25,42.805,6.029,0.039,0.006,0.022,101.0,104.0,97.0,13.4,1505.3,328.2,-0.7,1.9,2470.046,13.33,0.039,81.3
2019-05-28T18:16:26,42.805,6.029,0.028,0.004,0.016,100.0,102.0,97.0,13.3,1505.3,327.4,-0.8,1.9,2469.936,13.33,0.028,81.9
2019-05-28T18:19:27,42.805,6.029,0.025,0.006,-0.011,99.0,102.0,97.0,13.4,1505.3,326.6,-0.8,1.9,2470.005,13.33,0.025,76.5
2019-05-28T18:22:28,42.805,6.029,0.064,0.013,-0.015,102.0,102.0,96.0,13.4,1505.3,326.6,-0.8,1.9,2469.977,13.33,0.065,78.5
2019-05-28T18:25:29,42.805,6.029,0.015,0.011,-0.031,99.0,101.0,98.0,13.4,1505.3,327.0,-0.8,1.8,2469.959,13.33,0.018,53.7
2019-05-28T18:28:30,42.805,6.029,0.007,0.001,-0.024,99.0,103.0,96.0,13.4,1505.3,324.5,-0.7,1.9,2470.029,13.33,0.007,81.9
2019-05-28T18:31:31,42.805,6.029,0.013,0.021,-0.021,99.0,101.0,96.0,13.4,1505.3,324.1,-0.8,1.8,2469.998,13.33,0.024,31.8
2019-05-28T18:34:32,42.805,6.029,-0.011,0.022,-0.031,98.0,101.0,97.0,13.3,1505.3,325.1,-0.7,1.9,2469.97,13.33,0.024,333.4
2019-05-28T18:37:33,42.805,6.029,-0.004,0.005,-0.046,98.0,102.0,96.0,13.4,1505.3,324.6,-0.7,1.8,2470.011,13.33,0.006,321.3
2019-05-28T18:40:34,42.805,6.029,0.018,0.016,-0.059,98.0,103.0,96.0,13.4,1505.3,325.4,-0.8,1.8,2470.013,13.33,0.024,48.4
2019-05-28T18:43:35,42.805,6.029,0.012,0.012,-0.026,99.0,103.0,96.0,13.4,1505.3,327.0,-0.8,1.9,2469.986,13.33,0.016,45.0
2019-05-28T18:46:36,42.805,6.029,0.003,0.013,-0.037,99.0,103.0,96.0,13.4,1505.3,325.9,-0.8,1.8,2470.043,13.33,0.013,13.0
2019-05-28T18:49:37,42.805,6.029,-0.008,0.013,-0.053,98.0,101.0,98.0,13.4,1505.3,324.7,-0.8,1.8,2470.029,13.33,0.015,328.4
2019-05-28T18:52:38,42.805,6.029,0.015,-0.005,-0.066,99.0,102.0,96.0,13.4,1505.3,324.8,-0.7,1.9,2470.013,13.33,0.015,108.4
2019-05-28T18:55:39,42.805,6.029,-0.013,0.004,-0.051,100.0,100.0,95.0,13.3,1505.3,325.0,-0.7,1.9,2469.958,13.33,0.013,287.1
2019-05-28T18:58:40,42.805,6.029,0.008,0.018,0.009,100.0,101.0,99.0,13.4,1505.3,326.3,-0.7,1.9,2469.964,13.33,0.019,24.0
2019-05-28T19:01:41,42.805,6.029,0.011,0.012,-0.014,99.0,101.0,96.0,13.4,1505.3,326.0,-0.7,1.9,2469.967,13.33,0.016,42.5
2019-05-28T19:04:42,42.805,6.029,0.033,0.018,0.002,101.0,101.0,97.0,13.4,1505.3,327.0,-0.7,1.9,2469.957,13.33,0.037,61.4
2019-05-28T19:07:43,42.805,6.029,0.015,0.004,-0.053,100.0,102.0,96.0,13.4,1505.3,325.4,-0.8,1.9,2469.976,13.33,0.015,75.1
2019-05-28T19:10:44,42.805,6.029,0.029,0.026,-0.014,101.0,100.0,95.0,13.4,1505.3,325.6,-0.7,1.9,2469.969,13.33,0.038,48.1
2019-05-28T19:13:45,42.805,6.029,0.009,0.009,-0.041,99.0,103.0,96.0,13.4,1505.3,323.5,-0.7,1.8,2469.96,13.33,0.012,45.0
2019-05-28T19:16:46,42.805,6.029,0.016,0.002,-0.041,98.0,102.0,97.0,13.4,1505.3,327.4,-0.8,1.9,2469.974,13.33,0.016,82.9
2019-05-28T19:19:47,42.805,6.029,-0.032,0.026,-0.039,100.0,103.0,97.0,13.4,1505.3,323.3,-0.7,1.9,2469.976,13.33,0.041,309.1
2019-05-28T19:22:48,42.805,6.029,0.038,0.022,-0.018,99.0,104.0,95.0,13.4,1505.3,322.8,-0.8,1.9,2469.955,13.33,0.043,59.9
2019-05-28T19:25:49,42.805,6.029,-0.043,0.001,-0.062,99.0,105.0,96.0,13.4,1505.4,323.5,-0.8,1.9,2470.019,13.34,0.043,271.3
2019-05-28T19:28:50,42.805,6.029,-0.002,0.008,-0.041,99.0,105.0,96.0,13.3,1505.4,324.3,-0.8,1.8,2469.985,13.34,0.008,346.0
2019-05-28T19:31:51,42.805,6.029,-0.018,0.008,-0.045,100.0,105.0,98.0,13.4,1505.4,323.5,-0.8,1.9,2469.991,13.34,0.019,294.0
2019-05-28T19:34:52,42.805,6.029,-0.006,0.013,-0.039,98.0,103.0,97.0,13.4,1505.4,323.5,-0.7,1.8,2469.962,13.34,0.014,335.2
2019-05-28T19:37:53,42.805,6.029,0.036,0.015,-0.009,97.0,105.0,97.0,13.4,1505.4,323.9,-0.7,1.9,2470.044,13.34,0.039,67.4
2019-05-28T19:40:54,42.805,6.029,0.053,0.037,0.024,101.0,103.0,96.0,13.4,1505.3,325.5,-0.8,1.8,2469.976,13.33,0.064,55.1
2019-05-28T19:43:55,42.805,6.029,0.028,0.035,-0.016,97.0,105.0,98.0,13.4,1505.3,326.2,-0.7,1.9,2470.019,13.33,0.044,38.7
2019-05-28T19:46:56,42.805,6.029,0.001,-0.001,-0.017,99.0,106.0,97.0,13.4,1505.4,324.6,-0.8,1.9,2470.049,13.34,0.001,135.0
2019-05-28T19:49:57,42.805,6.029,-0.001,0.012,-0.052,100.0,104.0,96.0,13.4,1505.4,324.7,-0.7,1.8,2469.977,13.34,0.012,355.2
2019-05-28T19:52:58,42.805,6.029,-0.005,0.002,-0.018,99.0,106.0,99.0,13.4,1505.4,326.8,-0.8,1.9,2469.947,13.34,0.005,291.8
2019-05-28T19:55:59,42.805,6.029,0.035,0.009,-0.006,99.0,106.0,97.0,13.4,1505.4,325.8,-0.8,1.9,2470.02,13.34,0.036,75.6
2019-05-28T19:59:00,42.805,6.029,0.021,0.016,-0.011,99.0,103.0,96.0,13.4,1505.4,324.6,-0.7,1.8,2469.968,13.34,0.026,52.7
2019-05-28T20:02:01,42.805,6.029,0.016,0.009,-0.014,99.0,104.0,96.0,13.3,1505.4,328.4,-0.7,1.8,2469.923,13.34,0.018,60.6
2019-05-28T20:05:02,42.805,6.029,0.012,0.013,-0.018,99.0,103.0,96.0,13.4,1505.4,326.6,-0.7,1.8,2469.996,13.34,0.017,42.7
2019-05-28T20:08:03,42.805,6.029,0.031,0.018,-0.04,99.0,103.0,96.0,13.4,1505.4,324.5,-0.8,1.9,2470.004,13.34,0.035,59.9
2019-05-28T20:11:04,42.805,6.029,0.025,0.01,0.001,100.0,103.0,97.0,13.4,1505.4,325.7,-0.7,1.9,2469.996,13.34,0.026,68.2
2019-05-28T20:14:05,42.805,6.029,0.01,0.019,-0.051,97.0,103.0,98.0,13.4,1505.4,327.0,-0.7,1.9,2469.946,13.34,0.021,27.8
2019-05-28T20:17:06,42.805,6.029,0.019,0.02,0.002,98.0,105.0,97.0,13.4,1505.4,328.1,-0.7,1.9,2469.993,13.34,0.027,43.5
2019-05-28T20:20:07,42.805,6.029,0.005,0.016,-0.062,100.0,105.0,95.0,13.4,1505.4,323.3,-0.8,1.8,2469.989,13.34,0.016,17.4
2019-05-28T20:23:08,42.805,6.029,0.012,0.01,-0.041,99.0,105.0,98.0,13.4,1505.4,327.7,-0.7,1.9,2470.014,13.34,0.015,50.2
2019-05-28T20:26:09,42.805,6.029,0.014,0.027,-0.014,98.0,103.0,96.0,13.4,1505.4,324.7,-0.7,1.9,2469.978,13.34,0.03,27.4
2019-05-28T20:29:10,42.805,6.029,0.041,0.019,-0.021,100.0,103.0,97.0,13.4,1505.4,324.9,-0.8,1.9,2469.95,13.34,0.045,65.1
2019-05-28T20:32:11,42.805,6.029,0.032,0.015,-0.034,100.0,105.0,96.0,13.4,1505.4,326.4,-0.7,1.9,2469.977,13.34,0.035,64.9
2019-05-28T20:35:12,42.805,6.029,-0.004,0.051,-0.025,100.0,104.0,96.0,13.4,1505.4,327.0,-0.8,1.8,2469.957,13.34,0.051,355.5
2019-05-28T20:38:13,42.805,6.029,-0.001,0.023,-0.018,99.0,103.0,97.0,13.4,1505.4,326.7,-0.8,1.8,2469.995,13.34,0.023,357.5
2019-05-28T20:41:14,42.805,6.029,0.02,0.019,-0.018,99.0,103.0,96.0,13.3,1505.3,326.7,-0.8,1.8,2469.972,13.33,0.027,46.5
2019-05-28T20:44:15,42.805,6.029,-0.014,0.031,-0.015,99.0,104.0,97.0,13.4,1505.3,325.9,-0.8,1.9,2470.024,13.33,0.034,335.7
2019-05-28T20:47:16,42.805,6.029,0.035,0.006,-0.019,100.0,104.0,97.0,13.4,1505.3,326.5,-0.8,1.8,2469.992,13.33,0.035,80.3
2019-05-28T20:50:17,42.805,6.029,0.013,0.032,-0.038,100.0,106.0,96.0,13.3,1505.4,325.2,-0.8,1.9,2470.004,13.34,0.034,22.1
2019-05-28T20:53:18,42.805,6.029,-0.003,0.012,-0.041,99.0,104.0,96.0,13.4,1505.3,327.0,-0.8,1.8,2469.987,13.33,0.012,346.0
2019-05-28T20:56:19,42.805,6.029,0.013,0.023,-0.038,99.0,106.0,96.0,13.4,1505.3,323.7,-0.7,1.9,2469.984,13.33,0.026,29.5
2019-05-28T20:59:20,42.805,6.029,0.013,0.011,-0.016,99.0,104.0,97.0,13.4,1505.4,325.1,-0.7,1.8,2469.973,13.34,0.017,49.8
2019-05-28T21:02:21,42.805,6.029,-0.008,0.012,-0.046,99.0,104.0,101.0,13.4,1505.4,327.3,-0.8,1.8,2469.977,13.34,0.014,326.3
2019-05-28T21:05:22,42.805,6.029,-0.041,0.005,-0.063,99.0,104.0,96.0,13.4,1505.4,326.4,-0.8,1.8,2469.989,13.34,0.041,277.0
2019-05-28T21:08:23,42.805,6.029,-0.047,0.001,-0.067,99.0,107.0,98.0,13.4,1505.4,326.1,-0.8,1.8,2470.014,13.34,0.047,271.2
2019-05-28T21:11:24,42.805,6.029,0.002,0.026,-0.055,99.0,106.0,97.0,13.4,1505.4,323.7,-0.7,1.8,2469.996,13.34,0.026,4.4
2019-05-28T21:14:25,42.805,6.029,-0.009,0.028,-0.053,99.0,107.0,95.0,13.4,1505.4,325.4,-0.7,1.9,2469.995,13.34,0.029,342.2
2019-05-28T21:17:26,42.805,6.029,0.042,0.02,0.004,100.0,105.0,96.0,13.4,1505.4,326.6,-0.8,1.9,2469.991,13.34,0.046,64.5
2019-05-28T21:20:27,42.805,6.029,-0.007,0.014,-0.043,101.0,107.0,98.0,13.4,1505.4,325.1,-0.8,1.8,2469.981,13.34,0.015,333.4
2019-05-28T21:23:28,42.805,6.029,0.026,0.014,-0.012,99.0,106.0,97.0,13.4,1505.4,325.3,-0.8,1.9,2469.988,13.34,0.029,61.7
2019-05-28T21:26:29,42.805,6.029,0.035,0.014,0.0,99.0,105.0,97.0,13.4,1505.4,327.6,-0.8,1.8,2469.931,13.34,0.037,68.2
2019-05-28T21:29:30,42.805,6.029,0.033,0.019,0.008,101.0,104.0,97.0,13.4,1505.4,326.2,-0.8,1.8,2470.008,13.34,0.038,60.1
2019-05-28T21:32:31,42.805,6.029,0.046,0.004,0.0,99.0,105.0,100.0,13.3,1505.4,325.9,-0.8,1.9,2470.006,13.35,0.046,85.0
2019-05-28T21:35:32,42.805,6.029,0.052,0.034,-0.004,100.0,106.0,95.0,13.4,1505.4,326.3,-0.7,1.9,2469.951,13.34,0.062,56.8
2019-05-28T21:38:33,42.805,6.029,0.023,0.024,-0.016,101.0,105.0,97.0,13.4,1505.4,325.8,-0.7,1.9,2469.95,13.34,0.033,43.8
2019-05-28T21:41:34,42.805,6.029,0.045,0.01,0.001,98.0,106.0,97.0,13.4,1505.4,325.7,-0.8,1.9,2469.94,13.34,0.046,77.5
2019-05-28T21:44:35,42.805,6.029,0.027,0.008,-0.034,100.0,106.0,97.0,13.4,1505.4,326.2,-0.8,1.8,2469.994,13.34,0.028,73.5
2019-05-28T21:47:36,42.805,6.029,0.047,0.008,0.0,99.0,106.0,99.0,13.3,1505.4,324.9,-0.8,1.8,2469.985,13.34,0.047,80.3
2019-05-28T21:50:37,42.805,6.029,0.027,0.001,-0.014,101.0,105.0,98.0,13.4,1505.4,325.3,-0.8,1.8,2469.957,13.34,0.027,87.9
2019-05-28T21:53:39,42.805,6.029,0.046,0.013,0.003,99.0,105.0,98.0,13.4,1505.4,326.3,-0.8,1.8,2469.983,13.34,0.047,74.2
2019-05-28T21:56:39,42.805,6.029,0.049,0.036,-0.013,98.0,106.0,95.0,13.3,1505.4,325.1,-0.8,1.9,2470.03,13.34,0.06,53.7
2019-05-28T21:59:40,42.805,6.029,0.05,0.014,-0.01,99.0,104.0,96.0,13.3,1505.4,324.7,-0.7,1.8,2470.001,13.34,0.051,74.4
2019-05-28T22:02:41,42.805,6.029,0.048,0.011,-0.011,99.0,105.0,96.0,13.4,1505.4,324.7,-0.8,1.9,2469.955,13.34,0.049,77.1
2019-05-28T22:05:42,42.805,6.029,0.03,0.049,0.024,98.0,103.0,97.0,13.4,1505.4,325.4,-0.8,1.9,2470.005,13.34,0.057,31.5
2019-05-28T22:08:43,42.805,6.029,0.025,0.023,0.025,99.0,105.0,97.0,13.3,1505.4,325.2,-0.7,1.9,2469.974,13.34,0.033,47.4
2019-05-28T22:11:44,42.805,6.029,0.028,0.012,0.009,100.0,104.0,97.0,13.4,1505.4,326.6,-0.8,1.9,2470.001,13.34,0.03,66.8
2019-05-28T22:14:45,42.805,6.029,0.04,0.007,-0.007,99.0,105.0,96.0,13.4,1505.4,324.0,-0.8,1.8,2470.002,13.34,0.04,80.1
2019-05-28T22:17:46,42.805,6.029,0.063,0.031,0.038,101.0,105.0,96.0,13.4,1505.4,324.0,-0.8,1.9,2469.975,13.34,0.07,63.8
2019-05-28T22:20:47,42.805,6.029,0.027,0.031,-0.009,100.0,105.0,95.0,13.4,1505.4,323.2,-0.7,1.8,2469.947,13.34,0.041,41.1
2019-05-28T22:23:48,42.805,6.029,0.028,0.02,-0.032,97.0,105.0,96.0,13.4,1505.4,326.1,-0.8,1.8,2470.01,13.34,0.034,54.5
2019-05-28T22:26:49,42.805,6.029,0.009,0.006,-0.046,100.0,106.0,97.0,13.4,1505.4,326.2,-0.8,1.8,2469.984,13.34,0.01,56.3
2019-05-28T22:29:50,42.805,6.029,0.043,0.009,0.003,100.0,105.0,98.0,13.4,1505.4,327.4,-0.7,1.9,2469.983,13.34,0.043,78.2
2019-05-28T22:32:52,42.805,6.029,0.001,0.003,-0.015,98.0,106.0,97.0,13.4,1505.4,326.6,-0.7,1.9,2469.988,13.34,0.003,18.4
2019-05-28T22:35:53,42.805,6.029,0.041,0.02,-0.019,99.0,106.0,96.0,13.4,1505.4,327.6,-0.8,1.8,2469.981,13.34,0.045,64.0
2019-05-28T22:38:53,42.805,6.029,0.017,0.012,-0.027,98.0,105.0,97.0,13.4,1505.4,325.3,-0.7,1.8,2469.95,13.34,0.02,54.8
2019-05-28T22:41:54,42.805,6.029,0.05,0.006,-0.027,103.0,105.0,97.0,13.4,1505.4,327.5,-0.8,1.8,2470.007,13.34,0.05,83.2
2019-05-28T22:44:56,42.805,6.029,0.03,-0.012,-0.036,98.0,107.0,97.0,13.4,1505.4,327.3,-0.8,1.9,2470.004,13.34,0.032,111.8
2019-05-28T22:47:56,42.805,6.029,0.04,-0.006,-0.013,102.0,105.0,96.0,13.3,1505.4,327.2,-0.8,1.9,2469.981,13.34,0.04,98.5
2019-05-28T22:50:57,42.805,6.029,0.055,0.019,0.028,101.0,106.0,97.0,13.4,1505.4,324.5,-0.8,1.8,2469.979,13.34,0.058,70.9
2019-05-28T22:53:59,42.805,6.029,0.058,0.007,0.017,101.0,104.0,96.0,13.3,1505.4,327.7,-0.8,1.8,2469.977,13.34,0.058,83.1
2019-05-28T22:56:59,42.805,6.029,0.027,0.022,-0.034,99.0,107.0,96.0,13.4,1505.4,324.2,-0.7,1.8,2469.998,13.34,0.034,50.8
2019-05-28T23:00:00,42.805,6.029,0.061,0.011,0.015,102.0,104.0,97.0,13.3,1505.4,323.9,-0.8,1.9,2470.009,13.34,0.061,79.8
2019-05-28T23:03:02,42.805,6.029,0.019,0.011,-0.015,102.0,104.0,97.0,13.4,1505.4,323.9,-0.8,1.8,2469.953,13.34,0.021,59.9
2019-05-28T23:06:02,42.805,6.029,0.035,0.014,0.002,99.0,102.0,98.0,13.4,1505.4,327.1,-0.7,1.9,2469.981,13.34,0.037,68.2
2019-05-28T23:09:03,42.805,6.029,0.029,0.026,0.02,99.0,104.0,97.0,13.3,1505.4,325.0,-0.8,1.8,2469.998,13.34,0.038,48.1
2019-05-28T23:12:04,42.805,6.029,0.034,0.016,-0.009,102.0,104.0,97.0,13.3,1505.4,324.7,-0.8,1.9,2469.986,13.34,0.037,64.8
2019-05-28T23:15:06,42.805,6.029,0.044,0.019,-0.02,100.0,105.0,97.0,13.3,1505.4,326.1,-0.8,1.9,2469.991,13.34,0.047,66.6
2019-05-28T23:18:06,42.805,6.029,0.005,0.031,-0.059,101.0,106.0,95.0,13.3,1505.4,325.0,-0.8,1.8,2470.0,13.34,0.031,9.2
2019-05-28T23:21:08,42.805,6.029,0.022,0.024,-0.01,99.0,104.0,96.0,13.4,1505.4,324.0,-0.7,1.9,2470.013,13.34,0.032,42.5